Weather Roundup
Issued by NWS Corpus Christi, TX

Home | Current Version | Previous Version | Text Only | Print | Product List | Glossary On
Versions: 1 2 3 4 5 6 7 8 9 10 11 12 13 14 15 16 17 18 19 20 21 22 23 24 25 26 27 28 29 30 31 32 33 34 35 36 37 38 39 40 41 42 43 44 45 46 47 48 49 50
000
ASUS44 KCRP 251510
HRRCRP

SOUTH TEXAS REGIONAL WEATHER ROUNDUP
NATIONAL WEATHER SERVICE CORPUS CHRISTI TX
900 AM CST SAT FEB 25 2017


TXZ229>244-251600-
...CORPUS CHRISTI AREA OBSERVATIONS...

CITY           SKY/WX    TMP DP  RH WIND       PRES   REMARKS
CORPUS CHRISTI SUNNY     57  40  52 NE17G28   30.13R
NAS CORPUS CHR SUNNY     60  52  74 NE24G31   30.12R
ROCKPORT       SUNNY     58  38  47 NE15G23   30.15R
KINGSVILLE NAS SUNNY     58  41  53 N21       30.13R
ALICE          SUNNY     56  36  47 NE18G25   30.14R
ORANGE GROVE   SUNNY     56  36  47 NE18      30.16R
FALFURRIAS     SUNNY     57  38  49 N14       30.13R
$$

...VICTORIA AREA OBSERVATIONS...

CITY           SKY/WX    TMP DP  RH WIND       PRES   REMARKS
VICTORIA       SUNNY     54  35  48 NE21G29   30.16R
BEEVILLE       FAIR      55  37  50 NE20      30.15R
PLEASANTON     SUNNY     51  28  41 NE15G24   30.20R
SAN ANTONIO    MOSUNNY   49  29  46 NE16G23   30.20R
$$

...LAREDO AREA OBSERVATIONS...

CITY           SKY/WX    TMP DP  RH WIND       PRES   REMARKS
LAREDO         SUNNY     55  36  48 E12       30.18R
COTULLA        SUNNY     55  30  38 NE17      30.16R
DEL RIO        SUNNY     52  32  46 E5        30.18R
MCALLEN        SUNNY     64  48  56 N12       30.11R
HEBBRONVILLE   SUNNY     54  35  48 E14       30.15R
$$

...OTHER TEXAS OBSERVATIONS...

CITY           SKY/WX    TMP DP  RH WIND       PRES   REMARKS
BROWNSVILLE    CLOUDY    70  59  68 NE15G23   30.07R
HOUSTON        SUNNY     52  31  44 NE18      30.17R
COL. STATION   MOSUNNY   47  28  47 N16       30.21R
AUSTIN         SUNNY     48  28  46 NE18      30.22R
WACO           SUNNY     42  26  53 N14       30.25R
FORT WORTH     SUNNY     40  26  57 N12       30.25R WCI  33
WICHITA FALLS  MOSUNNY   31  20  63 N9        30.29R
LUBBOCK        SUNNY     31  19  61 SE12      30.19R WCI  22
EL PASO        SUNNY     45   9  23 S8        30.10R
$$

...MARINE OBSERVATIONS...

STATION/POSITION TIME  SKY/WX   TEMP    WIND        PRES    VSBY  WAVE   SWELL
                                AIR SEA DIR/SP/G                  HT/PER HT/PER
                 (UTC)          (F)     (DEG/KT/KT) (MB)    (MI)  (FT/S) (FT/S)
PORT ARANSAS     1400            58 67   20/ 21/ 24 1018.4R
BUOY 90 E PORT A 1450            64 69   40/ 19/ 21 1018.8R         7/ 6
BUOY 45 SE BAFFI 1450            68      50/ 21/ 27 1016.9R         7/ 7
BUOY 200 E PT IS 1450            72 74   40/ 17/ 21 1015.4R         5/ 5
BUOY 15 E GALVES 1450            55 65   20/ 21/ 25 1019.3R         4/ 5
$$




USA.gov is the U.S. government's official web portal to all federal, state and local government web resources and services.